• In Uzbekistan
  • List of Countries
  • For 7 days
  • Water Temperature
  • Satellite Maps
  • Weather Map
  • Weather Widgets
  • user-avatar
    Login

    Hourly Weather Ostrusza

    Today, 23 May, Thursday

    Time Temperature Precipitation Wind Pressure Humidity
    00:00 +13°C° 0.8 mm 2 mps 729 mmHg 97%
    01:00 +13°C° 0 mm 2 mps 728 mmHg 98%
    02:00 +13°C° 0.5 mm 2 mps 729 mmHg 98%
    03:00 +13°C° 0.5 mm 2 mps 729 mmHg 98%
    04:00 +13°C° 0.5 mm 2 mps 729 mmHg 98%
    05:00 +13°C° 0.4 mm 2 mps 729 mmHg 98%
    06:00 +13°C° 0.4 mm 2 mps 729 mmHg 98%
    07:00 +13°C° 0 mm 2 mps 730 mmHg 97%
    08:00 +14°C° 0.5 mm 2 mps 730 mmHg 95%
    09:00 +15°C° 0.5 mm 2 mps 730 mmHg 93%
    10:00 +15°C° 0.5 mm 2 mps 730 mmHg 91%
    11:00 +14°C° 0.7 mm 3 mps 731 mmHg 91%
    12:00 +15°C° 0.7 mm 4 mps 731 mmHg 91%
    13:00 +14°C° 0 mm 5 mps 731 mmHg 92%
    14:00 +13°C° 0.4 mm 5 mps 731 mmHg 93%
    15:00 +12°C° 0.4 mm 5 mps 731 mmHg 94%
    16:00 +12°C° 0.4 mm 5 mps 731 mmHg 95%
    17:00 +12°C° 0.4 mm 5 mps 732 mmHg 96%
    18:00 +11°C° 0.4 mm 4 mps 732 mmHg 96%
    19:00 +11°C° 0.4 mm 4 mps 732 mmHg 96%
    20:00 +11°C° 0.4 mm 4 mps 732 mmHg 97%
    21:00 +11°C° 0.4 mm 4 mps 732 mmHg 97%
    22:00 +11°C° 0.4 mm 4 mps 732 mmHg 97%
    23:00 +11°C° 0.1 mm 4 mps 732 mmHg 97%

    Tomorrow, 24 May, Friday

    Time Temperature Precipitation Wind Pressure Humidity
    00:00 +11°C° 0.1 mm 3 mps 732 mmHg 97%
    01:00 +11°C° 0.1 mm 3 mps 732 mmHg 97%
    02:00 +11°C° 0.1 mm 3 mps 732 mmHg 97%
    03:00 +12°C° 0.1 mm 2 mps 732 mmHg 97%
    04:00 +12°C° 0.1 mm 2 mps 732 mmHg 98%
    05:00 +12°C° 0.2 mm 2 mps 732 mmHg 98%
    06:00 +12°C° 0.2 mm 2 mps 732 mmHg 98%
    07:00 +13°C° 0.2 mm 2 mps 732 mmHg 98%
    08:00 +12°C° 0.1 mm 3 mps 732 mmHg 97%
    09:00 +12°C° 0.1 mm 3 mps 732 mmHg 97%
    10:00 +12°C° 0.1 mm 3 mps 732 mmHg 96%
    11:00 +12°C° 0.1 mm 3 mps 732 mmHg 96%
    12:00 +12°C° 0.1 mm 3 mps 732 mmHg 95%
    13:00 +13°C° 0.1 mm 3 mps 732 mmHg 94%
    14:00 +13°C° 0.1 mm 3 mps 732 mmHg 93%
    15:00 +14°C° 0.1 mm 3 mps 731 mmHg 92%
    16:00 +14°C° 0.1 mm 3 mps 731 mmHg 91%
    17:00 +15°C° 0.1 mm 2 mps 731 mmHg 92%
    18:00 +15°C° 0.1 mm 2 mps 731 mmHg 93%
    19:00 +14°C° 0.1 mm 2 mps 731 mmHg 94%
    20:00 +14°C° 0 mm 2 mps 731 mmHg 94%
    21:00 +13°C° 0 mm 1 mps 731 mmHg 94%
    22:00 +13°C° 0 mm 1 mps 732 mmHg 95%
    23:00 +12°C° 0 mm 1 mps 732 mmHg 95%

    Day after tomorrow, 25 May, Saturday

    Time Temperature Precipitation Wind Pressure Humidity
    00:00 +12°C° 0 mm 1 mps 732 mmHg 95%
    01:00 +11°C° 0 mm 1 mps 732 mmHg 96%
    02:00 +11°C° 0 mm 1 mps 732 mmHg 96%
    03:00 +10°C° 0 mm 1 mps 732 mmHg 96%
    04:00 +10°C° 0 mm 1 mps 732 mmHg 96%
    05:00 +12°C° 0 mm 1 mps 732 mmHg 93%
    06:00 +13°C° 0 mm 2 mps 732 mmHg 90%
    07:00 +15°C° 0 mm 2 mps 732 mmHg 87%
    08:00 +16°C° 0 mm 2 mps 732 mmHg 79%
    09:00 +18°C° 0 mm 2 mps 732 mmHg 72%
    10:00 +19°C° 0 mm 3 mps 732 mmHg 65%
    11:00 +20°C° 0 mm 3 mps 732 mmHg 62%
    12:00 +20°C° 0 mm 3 mps 732 mmHg 58%
    13:00 +21°C° 0 mm 3 mps 732 mmHg 55%
    14:00 +21°C° 0 mm 3 mps 732 mmHg 57%
    15:00 +21°C° 0 mm 3 mps 731 mmHg 58%
    16:00 +21°C° 0 mm 2 mps 731 mmHg 59%
    17:00 +19°C° 0 mm 2 mps 731 mmHg 67%
    18:00 +19°C° 0 mm 1 mps 731 mmHg 74%
    19:00 +16°C° 0 mm 1 mps 731 mmHg 82%
    20:00 +15°C° 0 mm 1 mps 731 mmHg 84%
    21:00 +14°C° 0 mm 1 mps 732 mmHg 86%
    22:00 +13°C° 0 mm 1 mps 732 mmHg 89%
    23:00 +13°C° 0 mm 1 mps 732 mmHg 89%

    26 May, Sunday

    Time Temperature Precipitation Wind Pressure Humidity
    00:00 +12°C° 0 mm 1 mps 732 mmHg 90%
    01:00 +12°C° 0 mm 1 mps 732 mmHg 90%
    02:00 +12°C° 0 mm 1 mps 732 mmHg 90%
    03:00 +12°C° 0 mm 1 mps 731 mmHg 89%
    04:00 +12°C° 0 mm 1 mps 731 mmHg 89%
    05:00 +13°C° 0.1 mm 1 mps 731 mmHg 88%
    06:00 +14°C° 0.1 mm 1 mps 731 mmHg 86%
    07:00 +15°C° 0.1 mm 1 mps 731 mmHg 85%
    08:00 +16°C° 0.2 mm 2 mps 731 mmHg 84%
    09:00 +17°C° 0.2 mm 2 mps 731 mmHg 83%
    10:00 +19°C° 0.2 mm 3 mps 731 mmHg 82%
    11:00 +19°C° 0.8 mm 3 mps 731 mmHg 81%
    12:00 +20°C° 0.8 mm 4 mps 731 mmHg 80%
    13:00 +20°C° 0.8 mm 4 mps 731 mmHg 80%
    14:00 +20°C° 0.8 mm 4 mps 731 mmHg 81%
    15:00 +20°C° 0.8 mm 3 mps 731 mmHg 82%
    16:00 +19°C° 0.8 mm 3 mps 730 mmHg 83%
    17:00 +18°C° 0.3 mm 2 mps 730 mmHg 85%
    18:00 +18°C° 0.3 mm 1 mps 730 mmHg 87%
    19:00 +16°C° 0.3 mm 1 mps 730 mmHg 89%
    20:00 +16°C° 0.2 mm 1 mps 731 mmHg 90%
    21:00 +15°C° 0.2 mm 1 mps 731 mmHg 91%
    22:00 +15°C° 0.2 mm 1 mps 731 mmHg 91%
    23:00 +14°C° 0 mm 1 mps 731 mmHg 92%

    27 May, Monday

    Time Temperature Precipitation Wind Pressure Humidity
    00:00 +13°C° 0 mm 1 mps 731 mmHg 92%
    01:00 +13°C° 0 mm 1 mps 731 mmHg 93%
    02:00 +13°C° 0 mm 1 mps 731 mmHg 93%
    03:00 +12°C° 0 mm 1 mps 731 mmHg 93%
    04:00 +12°C° 0 mm 1 mps 731 mmHg 93%
    05:00 +13°C° 0 mm 1 mps 731 mmHg 89%
    06:00 +15°C° 0 mm 2 mps 731 mmHg 86%
    07:00 +17°C° 0 mm 2 mps 731 mmHg 82%
    08:00 +19°C° 0.1 mm 2 mps 731 mmHg 75%
    09:00 +20°C° 0.1 mm 2 mps 731 mmHg 69%
    10:00 +23°C° 0.1 mm 2 mps 731 mmHg 62%
    11:00 +23°C° 0.2 mm 2 mps 731 mmHg 62%
    12:00 +23°C° 0.2 mm 2 mps 731 mmHg 61%
    13:00 +24°C° 0.2 mm 2 mps 731 mmHg 61%
    14:00 +24°C° 0.1 mm 2 mps 730 mmHg 60%
    15:00 +24°C° 0.1 mm 1 mps 730 mmHg 59%
    16:00 +24°C° 0.1 mm 1 mps 730 mmHg 58%
    17:00 +23°C° 0 mm 1 mps 730 mmHg 65%
    18:00 +21°C° 0 mm 1 mps 730 mmHg 72%
    19:00 +20°C° 0 mm 1 mps 730 mmHg 79%
    20:00 +19°C° 0 mm 1 mps 730 mmHg 82%
    21:00 +18°C° 0 mm 1 mps 730 mmHg 85%
    22:00 +16°C° 0 mm 1 mps 730 mmHg 87%
    23:00 +15°C° 0 mm 1 mps 730 mmHg 88%

    28 May, Tuesday

    Time Temperature Precipitation Wind Pressure Humidity
    00:00 +15°C° 0 mm 1 mps 730 mmHg 89%
    01:00 +15°C° 0 mm 1 mps 730 mmHg 89%
    02:00 +15°C° 0 mm 1 mps 730 mmHg 89%
    03:00 +15°C° 0 mm 1 mps 729 mmHg 89%
    04:00 +15°C° 0 mm 1 mps 729 mmHg 88%
    05:00 +15°C° 0.6 mm 1 mps 729 mmHg 90%
    06:00 +15°C° 0.6 mm 1 mps 729 mmHg 92%
    07:00 +16°C° 0.6 mm 1 mps 728 mmHg 94%
    08:00 +15°C° 1.3 mm 1 mps 728 mmHg 95%
    09:00 +15°C° 1.3 mm 1 mps 728 mmHg 95%
    10:00 +14°C° 1.3 mm 0 mps 728 mmHg 96%
    11:00 +18°C° 0.2 mm 1 mps 727 mmHg 90%
    12:00 +19°C° 0.2 mm 1 mps 727 mmHg 84%
    13:00 +21°C° 0.2 mm 1 mps 727 mmHg 78%
    14:00 +21°C° 0 mm 1 mps 727 mmHg 76%
    15:00 +22°C° 0 mm 1 mps 727 mmHg 74%
    16:00 +22°C° 0 mm 1 mps 726 mmHg 71%
    17:00 +21°C° 0 mm 1 mps 726 mmHg 78%
    18:00 +20°C° 0 mm 1 mps 726 mmHg 85%
    19:00 +19°C° 0 mm 1 mps 726 mmHg 92%
    20:00 +18°C° 0.7 mm 1 mps 726 mmHg 93%
    21:00 +16°C° 0.7 mm 1 mps 726 mmHg 94%
    22:00 +15°C° 0.7 mm 1 mps 727 mmHg 96%
    23:00 +15°C° 1 mm 1 mps 727 mmHg 96%
    Show more